Home > Weather > Davis > Past weeks

Flag for USA Past Weather in Davis, California, USA — Yesterday and Last 2 Weeks

Now
66 °F

Clear.


Feels Like: 66 °F
Forecast: 55 / 88 °F
Wind: 14 mph from South

Location: Sacramento International Airport

Current Time: Aug 27, 2016 at 10:11:38 PM

Latest Report: Aug 27, 2016 at 8:53 PM


Visibility: 10 mi

Pressure: 29.91 "Hg

Humidity: 65%

Dew Point: 54 °F

Location of DavisLocation

Past Weather in Davis — Graph

°F

Davis Temperature Yesterday

Maximum temperature yesterday: 84 °F (at 2:53 PM)
Minimum temperature yesterday: 56 °F (at 6:53 AM)
Average temperature yesterday: 68 °F

High & Low Weather Summary for the Past Weeks

 TemperatureHumidityPressure
High101 °F (Aug 14, 4:53 PM)90% (Aug 26, 3:53 AM)30.05 "Hg (Aug 26, 3:53 AM)
Low52 °F (Aug 25, 5:53 AM)13% (Aug 13, 6:53 PM)29.70 "Hg (Aug 17, 6:53 PM)
Average73 °F54%29.85 "Hg
* Reported Aug 12 8:53 PM — Aug 27 8:53 PM, Davis, Weather by CustomWeather, © 2016

Note: Actual official high and low records may vary slightly from our data, if they occured in-between our weather recording intervals... More about our weather records

Advertising

Davis Weather History for the Previous 24 Hours

Scroll right to see more
 ConditionsComfort  
Time TempWeatherWind HumidityBarometerVisibility
8:53 PM
Sat, Aug 27
66 °FClear.14 mph65%29.91 "Hg10 mi
7:53 PM70 °FSunny.14 mph59%29.89 "Hg10 mi
6:53 PM76 °FSunny.13 mph50%29.88 "Hg10 mi
5:53 PM81 °FSunny.15 mph41%29.88 "Hg10 mi
4:53 PM84 °FSunny.14 mph37%29.88 "Hg10 mi
3:53 PM83 °FSunny.10 mph40%29.89 "Hg10 mi
2:53 PM83 °FSunny.8 mph37%29.91 "Hg10 mi
1:53 PM82 °FSunny.10 mph38%29.93 "Hg10 mi
12:53 PM78 °FSunny.8 mph39%29.94 "Hg10 mi
11:53 AM73 °FSunny.6 mph53%29.95 "Hg10 mi
10:53 AM68 °FSunny.6 mph61%29.96 "Hg10 mi
9:53 AM63 °FSunny.3 mph73%29.96 "Hg10 mi
8:53 AM61 °FSunny.7 mph75%29.95 "Hg10 mi
7:53 AM57 °FSunny.6 mph83%29.94 "Hg10 mi
6:53 AM58 °FClear.8 mph81%29.93 "Hg10 mi
5:53 AM58 °FClear.9 mph84%29.91 "Hg10 mi
4:53 AM58 °FClear.9 mph84%29.90 "Hg10 mi
3:53 AM59 °FClear.12 mph81%29.89 "Hg10 mi
2:53 AM60 °FClear.14 mph78%29.89 "Hg10 mi
1:53 AM60 °FClear.14 mph78%29.88 "Hg10 mi
12:53 AM60 °FClear.12 mph80%29.88 "Hg10 mi
11:53 PM
Fri, Aug 26
61 °FClear.12 mph78%29.88 "Hg10 mi
10:53 PM62 °FClear.13 mph78%29.87 "Hg10 mi
Weather by CustomWeather, © 2016

See weather overviewHow to use our weather pages